Home > Weather > Garbsen > Past weeks

Flag for Germany Weather for the Past 2 Weeks in Garbsen, Lower Saxony, Germany

Now
55 °F

Clear.


Feels Like: 54 °F
Forecast: 55 / 74 °F
Wind: 6 mph from East

Location: Hannover

Current Time: May 7, 2016 at 1:34:37 AM

Latest Report: May 7, 2016 at 1:20 AM


Visibility: 10 mi

Pressure: 29.98 "Hg

Humidity: 67%

Dew Point: 45 °F

Location of GarbsenLocation

Historic Weather in Garbsen — Graph

°F

Garbsen Temperature Yesterday

Maximum temperature yesterday: 73 °F (at 2:20 PM)
Minimum temperature yesterday: 45 °F (at 5:20 AM)
Average temperature yesterday: 61 °F

High & Low Weather Summary for the Past Weeks

 TemperatureHumidityPressure
High73 °F (May 6, 2:20 PM)100% (Apr 22, 4:20 AM)30.42 "Hg (Apr 22, 4:20 AM)
Low30 °F (Apr 25, 12:50 AM)26% (May 2, 3:20 PM)29.42 "Hg (Apr 26, 10:50 AM)
Average46 °F75%29.99 "Hg
* Reported Apr 22 12:20 AM — May 7 12:20 AM, Garbsen, Weather by CustomWeather, © 2016

Note: Actual official high and low records may vary slightly from our data, if they occured in-between our weather recording intervals... More about our weather records

Advertising

Garbsen Weather History for the Previous 24 Hours

Scroll right to see more
 ConditionsComfort  
Time TempWeatherWind HumidityBarometerVisibility
12:20 AM
Sat, May 7
55 °FClear.6 mph72%29.98 "Hg10 mi
11:50 PM
Fri, May 6
57 °FClear.5 mph67%29.95 "Hg10 mi
11:20 PM59 °FClear.6 mph63%29.98 "Hg10 mi
10:50 PM63 °FClear.7 mph56%29.95 "Hg10 mi
10:20 PM64 °FClear.8 mph52%29.95 "Hg10 mi
9:50 PM66 °FSunny.8 mph49%29.95 "Hg10 mi
9:20 PM68 °FPassing clouds.9 mph46%29.95 "HgN/A
8:50 PM68 °FSunny.8 mph43%29.95 "Hg10 mi
8:20 PM70 °FSunny.14 mph38%29.95 "Hg10 mi
7:50 PM70 °FSunny.15 mph35%29.95 "Hg10 mi
7:20 PM72 °FSunny.16 mph31%29.95 "Hg10 mi
6:50 PM72 °FPassing clouds.17 mph31%29.95 "HgN/A
6:20 PM73 °FSunny.17 mph31%29.98 "Hg10 mi
5:50 PM73 °FSunny.17 mph33%29.98 "Hg10 mi
5:20 PM73 °FPassing clouds.17 mph33%29.98 "HgN/A
4:50 PM73 °FPassing clouds.17 mph33%29.98 "HgN/A
4:20 PM73 °FSunny.15 mph38%29.98 "Hg10 mi
3:50 PM73 °FPassing clouds.15 mph38%30.01 "HgN/A
3:20 PM73 °FPassing clouds.17 mph44%30.01 "HgN/A
2:50 PM73 °FPassing clouds.14 mph47%30.01 "HgN/A
2:20 PM73 °FPassing clouds.15 mph47%30.04 "HgN/A
1:50 PM72 °FSunny.16 mph50%30.04 "Hg10 mi
1:20 PM72 °FPassing clouds.14 mph47%30.04 "HgN/A
12:50 PM72 °FScattered clouds.13 mph47%30.07 "HgN/A
12:20 PM70 °FPassing clouds.13 mph50%30.07 "HgN/A
11:50 AM68 °FPassing clouds.10 mph53%30.07 "HgN/A
11:20 AM66 °FSunny.12 mph60%30.07 "Hg10 mi
10:50 AM66 °FPassing clouds.10 mph56%30.09 "HgN/A
10:20 AM63 °FSunny.12 mph64%30.09 "Hg10 mi
9:50 AM63 °FPassing clouds.10 mph64%30.09 "HgN/A
9:20 AM61 °FPassing clouds.8 mph68%30.09 "HgN/A
8:50 AM57 °FPassing clouds.7 mph72%30.09 "HgN/A
8:20 AM55 °FPassing clouds.6 mph72%30.12 "HgN/A
7:50 AM52 °FPassing clouds.5 mph82%30.12 "HgN/A
7:20 AM50 °FSunny.8 mph88%30.12 "Hg10 mi
6:50 AM46 °FSunny.7 mph93%30.12 "Hg10 mi
6:20 AM45 °FClear.6 mph93%30.12 "Hg10 mi
5:50 AM45 °FClear.6 mph87%30.12 "Hg10 mi
5:20 AM45 °FClear.6 mph93%30.12 "Hg10 mi
4:50 AM46 °FClear.6 mph87%30.12 "Hg10 mi
4:20 AM46 °FClear.8 mph87%30.12 "Hg10 mi
3:50 AM46 °FClear.7 mph87%30.15 "Hg10 mi
3:20 AM48 °FClear.7 mph82%30.15 "Hg10 mi
2:50 AM48 °FClear.7 mph82%30.15 "Hg10 mi
2:20 AM50 °FClear.7 mph76%30.15 "Hg10 mi
1:50 AM50 °FClear.7 mph76%30.15 "Hg10 mi
1:20 AM50 °FClear.8 mph76%30.15 "Hg10 mi
Weather by CustomWeather, © 2016

See weather overviewHow to use our weather pages